Location: Newark
(45.4041°N, 17.9426°E)
Time: 14:47:46
(UTC+00:00)

Envisat - Pass Details

Date: 24 September 2019
Orbit: 764 x 766 km, 98.1° (Epoch: 21 October)

Event Time Altitude Azimuth Distance (km) Brightness Sun altitude
Rises 18:35:32 0° 224° (SW) 3,223 6.5 -20.2°
Reaches altitude 10° 18:40:14 10° 264° (W) 2,305 6.4 -21.0°
Maximum altitude 18:41:08 10° 274° (W) 2,277 6.5 -21.1°
Drops below altitude 10° 18:42:02 10° 285° (WNW) 2,308 6.6 -21.3°
Sets 18:46:47 0° 325° (NW) 3,242 7.2 -22.0°
